Location: Fort Wayne
(41.1310°N, 85.1290°W)
Time: 08:19:53
(UTC-04:00)

COSMOS 2428 - Visible Passes

Search period start: 30 June 2016 00:00
Search period end: 10 July 2016 00:00
Orbit: 846 x 857 km, 70.9° (Epoch: 30 June)

Date Brightness Start Highest point End Pass type
(mag) Time Alt. Az. Time Alt. Az. Time Alt. Az.
30 Jun 3.8 23:10:39 10° NW 23:15:48 36° WSW 23:20:00 15° SSW visible
01 Jul 3.9 22:58:28 10° NW 23:03:37 36° WSW 23:08:24 12° SSW visible
02 Jul 3.9 22:46:16 10° NW 22:51:26 36° WSW 22:56:34 10° S visible
03 Jul 4.0 22:34:06 10° NW 22:39:15 36° WSW 22:44:24 10° S visible
04 Jul 4.0 22:21:54 10° NW 22:27:04 36° WSW 22:32:12 10° S visible
05 Jul 4.1 22:09:43 10° NW 22:14:53 36° WSW 22:20:01 10° S visible
06 Jul 4.1 21:57:33 10° NW 22:02:42 36° WSW 22:07:50 10° S visible
07 Jul 4.1 21:45:21 10° NW 21:50:30 36° WSW 21:55:39 10° S visible
